DELTA 1 DEB, 3127

Orbit data source: Space-Track

DELTA 1 DEB, 3127 is space debris in LEO originally from a launch on Thu, 11 Jan 1968 UTC launched from the Air Force Western Test Range (AFWTR). Debris objects in space refer to the collection of defunct objects orbiting the Earth. Examples of debris include non-operational satellites, rocket bodies, and fragments generated from explosions, collisions, or faulty payload assembly.

Loading next visibility...
Identifier
3127, 1968-002D
Orbit
LEO
Country
Flag of USUS
Related business
Manufacturer
Unknown
Mission
Spacecraft
Bus & Motor
Unknown
Mass
Unknown
Launch date (UTC)
1968-01-11 (58 years ago)
Launch vehicle
Unknown
Launch site
Air Force Western Test Range (AFWTR)
Object type
Payload
Rocket body
Debris
Shape & HBR
Unknown shape, 0.1 m
Radar Cross Section
Small (<0.1 m²)

Expand to show TLE details & history
Last TLE update: 21 hours ago

TLE from 21 hours ago
0 DELTA 1 DEB
1 03127U 68002D   26035.11386898 -.00000044  00000-0  93195-4 0  9999
2 03127 105.3096 135.1745 0321355 168.9273 315.6506 12.84889317721872
Epoch: 2026-02-04T02:43Z
TLE epoch observation values (Epoch: 2026-02-04T02:43:58.279Z)
Latitude
55.04609°
Longitude
162.82756°
Altitude
1,157.684 km
Speed
7.361 km/s
True Right ascension
22h 32m 25s
True Declination
54° 53' 35"
Sunlit
Object was in daylight at epoch
Visualization orbit readout
Latitude
Unknown
Longitude
Unknown
Altitude
Unknown
Speed
Unknown
Apparent Right ascension
Unknown
Apparent Declination
Unknown
Sunlit
N/A
Visualization observer readout
Local Sidereal Time
01:40:52
Azimuth
Unknown
Elevation
Unknown
Doppler factor
Unknown
Orbital elements
Apogee altitude
1,566.985 km
Perigee altitude
1,072.243 km
Semi-major axis
7,697.751 km
Eccentricity
0.03214
Inclination
105.3096°
RAAN
135.1745°
Arg. of periapsis
168.9273°
True anomaly
313.00136°
Mean anomaly
315.6506°
Eccentric anomaly
314.3336°
Mean motion
3.21364 °/min
Orbital period
112.02 mins
BSTAR
0.000093195
Loading maneuver chart data...
Computing Atmospheric mass density...
Loading historical data...
Loading historical data...
Loading historical data...
Loading historical data...
Loading historical data...
Loading historical data...
Loading historical data...

Documentation

Showing up to 5 results
|